Location: *
(50.8160°S, 176.0219°W)
Time: 00:32:16
(UTC+00:00)

Cosmos 1833 Rocket - Pass Details

Date: 19 May 2026
Orbit: 830 x 839 km, 71.0° (Epoch: 9 June)

Event Time Altitude Azimuth Distance (km) Brightness Sun altitude
Rises 17:46:09 0° 336° (NNW) 3,392 5.7 -14.4°
Reaches altitude 10° 17:48:35 10° 336° (NNW) 2,464 5.0 -14.1°
Maximum altitude 17:54:15 83° 62° (ENE) 863 2.8 -13.2°
Drops below altitude 10° 17:59:59 10° 149° (SSE) 2,486 5.3 -12.3°
Sets 18:02:27 0° 149° (SSE) 3,425 6.1 -12.0°
